User: anonymous   Login
Location: Oshawa
(43.9000°N, 78.8670°W)
Time: 09:33:37
(UTC-04:00)
Language:

Iridium 98 - Orbit

View from above orbital plane
View from above orbital plane
View from above satellite
View from above satellite

Ground track
Ground track

The orbit data is extracted from the following two-line orbital elements,

1 27451U 02031B   18170.71417381 +.00000115 +00000-0 +33930-4 0  9993
2 27451 086.3973 228.5059 0002191 103.4728 256.6712 14.34221318843964
Epoch (UTC): 19 June 2018 17:08:24
Eccentricity: 0.0002191
inclination: 86.3973°
perigee height: 776 km
apogee height: 779 km
right ascension of ascending node: 228.5059°
argument of perigee: 103.4728°
revolutions per day: 14.34221318
mean anomaly at epoch: 256.6712°
orbit number at epoch: 84396

The dashed part of the orbit path shows where the satellite is in the earth's shadow,  

DLR